Total_Precipitation_Accumulation
0.07 0.07 0.09 0.10 0.08 0.06 0.03 0.01 0.00 0.00 0.00 0.00 0.01 0.00 0.00 0.01 0.01 0.05 0.07 0.05 0.05 0.09 0.15 0.30 0.43 0.48 0.51 0.56 0.56 0.56 0.46 0.41 0.43 0.51 0.59 0.58 0.56 0.54 0.57 0.59 0.62 0.66 0.69 0.68 0.63 0.60 0.58 0.50 0.45
0.08 0.09 0.15 0.18 0.10 0.05 0.02 0.01 0.00 0.00 0.00 0.00 0.00 0.00 0.00 0.01 0.01 0.03 0.07 0.05 0.04 0.06 0.12 0.21 0.36 0.47 0.53 0.55 0.56 0.52 0.47 0.45 0.45 0.51 0.59 0.62 0.58 0.54 0.56 0.59 0.61 0.66 0.66 0.68 0.64 0.60 0.60 0.51 0.44
0.13 0.15 0.19 0.18 0.10 0.04 0.02 0.01 0.01 0.00 0.00 0.00 0.00 0.00 0.00 0.01 0.02 0.03 0.05 0.04 0.05 0.08 0.12 0.21 0.37 0.48 0.57 0.60 0.60 0.57 0.54 0.53 0.54 0.55 0.60 0.63 0.65 0.61 0.57 0.53 0.55 0.63 0.63 0.64 0.65 0.62 0.61 0.54 0.47
0.22 0.29 0.26 0.17 0.07 0.02 0.01 0.01 0.01 0.01 0.01 0.01 0.01 0.00 0.01 0.01 0.02 0.03 0.04 0.05 0.06 0.09 0.13 0.23 0.39 0.53 0.58 0.61 0.64 0.59 0.59 0.60 0.60 0.60 0.64 0.68 0.68 0.66 0.61 0.56 0.52 0.51 0.54 0.60 0.63 0.64 0.65 0.60 0.51
0.30 0.35 0.29 0.16 0.06 0.01 0.01 0.01 0.01 0.01 0.01 0.01 0.01 0.00 0.01 0.02 0.03 0.05 0.06 0.06 0.07 0.10 0.14 0.24 0.42 0.56 0.62 0.65 0.69 0.67 0.67 0.68 0.67 0.67 0.69 0.70 0.71 0.71 0.66 0.60 0.53 0.46 0.45 0.49 0.56 0.58 0.59 0.60 0.54
0.42 0.38 0.25 0.13 0.07 0.02 0.00 0.01 0.01 0.01 0.02 0.02 0.01 0.01 0.03 0.05 0.06 0.08 0.09 0.09 0.09 0.11 0.17 0.28 0.47 0.60 0.69 0.74 0.78 0.75 0.77 0.81 0.80 0.80 0.79 0.76 0.73 0.70 0.66 0.61 0.56 0.50 0.48 0.49 0.52 0.54 0.57 0.60 0.58
0.40 0.34 0.18 0.10 0.07 0.03 0.01 0.01 0.02 0.02 0.03 0.03 0.02 0.02 0.05 0.10 0.10 0.10 0.12 0.12 0.14 0.15 0.19 0.30 0.44 0.59 0.75 0.84 0.85 0.83 0.83 0.87 0.86 0.86 0.85 0.83 0.80 0.78 0.78 0.71 0.62 0.58 0.56 0.55 0.51 0.49 0.48 0.50 0.55
0.39 0.39 0.20 0.09 0.06 0.04 0.02 0.01 0.02 0.03 0.05 0.05 0.03 0.02 0.04 0.11 0.12 0.13 0.16 0.17 0.21 0.23 0.26 0.35 0.48 0.57 0.67 0.77 0.86 0.84 0.82 0.87 0.91 0.92 0.90 0.91 0.87 0.86 0.87 0.78 0.67 0.62 0.60 0.55 0.50 0.48 0.43 0.40 0.40
0.54 0.50 0.23 0.08 0.06 0.05 0.04 0.04 0.03 0.05 0.08 0.09 0.06 0.04 0.06 0.12 0.15 0.18 0.23 0.27 0.30 0.34 0.35 0.41 0.56 0.64 0.69 0.73 0.74 0.85 0.90 0.94 0.95 0.94 0.90 0.90 0.87 0.80 0.75 0.71 0.69 0.69 0.67 0.59 0.54 0.52 0.46 0.39 0.33
0.67 0.49 0.20 0.08 0.06 0.07 0.07 0.08 0.07 0.08 0.12 0.12 0.10 0.07 0.10 0.17 0.21 0.21 0.21 0.24 0.29 0.33 0.38 0.45 0.59 0.65 0.72 0.73 0.81 0.93 0.93 0.94 0.93 0.87 0.88 0.85 0.80 0.76 0.71 0.73 0.75 0.73 0.73 0.71 0.66 0.60 0.51 0.40 0.30
0.56 0.37 0.15 0.09 0.08 0.08 0.10 0.11 0.09 0.11 0.11 0.13 0.12 0.10 0.15 0.22 0.28 0.26 0.21 0.21 0.26 0.35 0.42 0.49 0.60 0.70 0.76 0.78 0.82 0.90 0.90 0.93 0.94 0.93 0.92 0.92 0.90 0.88 0.85 0.82 0.84 0.80 0.74 0.74 0.73 0.69 0.54 0.45 0.38
0.40 0.25 0.16 0.13 0.12 0.12 0.12 0.11 0.10 0.12 0.11 0.10 0.12 0.11 0.17 0.24 0.28 0.27 0.26 0.26 0.32 0.44 0.49 0.55 0.67 0.77 0.80 0.84 0.86 0.85 0.86 0.88 0.87 0.91 0.93 0.94 0.93 0.88 0.87 0.84 0.79 0.78 0.78 0.76 0.73 0.69 0.58 0.47 0.39
0.32 0.22 0.18 0.16 0.16 0.15 0.14 0.11 0.11 0.11 0.10 0.10 0.14 0.14 0.17 0.26 0.33 0.36 0.41 0.41 0.42 0.49 0.55 0.62 0.75 0.82 0.84 0.89 0.92 0.92 0.88 0.84 0.81 0.82 0.87 0.89 0.89 0.84 0.79 0.76 0.74 0.72 0.73 0.72 0.67 0.61 0.54 0.45 0.40
0.27 0.23 0.21 0.20 0.22 0.19 0.16 0.13 0.11 0.10 0.09 0.12 0.16 0.16 0.17 0.26 0.37 0.40 0.48 0.54 0.49 0.50 0.57 0.69 0.80 0.89 0.94 0.95 0.91 0.90 0.92 0.89 0.85 0.81 0.78 0.80 0.83 0.84 0.81 0.77 0.75 0.71 0.69 0.70 0.69 0.65 0.58 0.49 0.42
0.30 0.34 0.32 0.24 0.22 0.23 0.23 0.17 0.09 0.07 0.08 0.14 0.18 0.18 0.19 0.26 0.37 0.39 0.42 0.50 0.55 0.55 0.66 0.81 0.90 0.99 1.06 1.07 1.02 0.98 0.96 0.97 0.90 0.85 0.83 0.79 0.77 0.78 0.83 0.83 0.78 0.71 0.66 0.66 0.68 0.71 0.72 0.64 0.53
0.47 0.55 0.47 0.27 0.20 0.20 0.34 0.27 0.07 0.05 0.08 0.13 0.20 0.23 0.20 0.24 0.33 0.41 0.44 0.49 0.61 0.71 0.78 0.89 1.00 1.05 1.09 1.15 1.16 1.12 1.04 0.97 0.94 0.89 0.89 0.86 0.81 0.81 0.84 0.87 0.83 0.77 0.72 0.68 0.65 0.65 0.68 0.67 0.63
0.72 0.63 0.42 0.26 0.20 0.22 0.31 0.25 0.09 0.07 0.08 0.10 0.16 0.24 0.24 0.25 0.33 0.44 0.49 0.50 0.63 0.72 0.78 0.91 1.04 1.07 1.06 1.18 1.25 1.26 1.17 1.05 0.98 0.95 0.91 0.88 0.84 0.81 0.84 0.88 0.87 0.84 0.82 0.78 0.73 0.68 0.62 0.60 0.59
0.59 0.44 0.34 0.27 0.24 0.27 0.25 0.16 0.09 0.09 0.10 0.10 0.12 0.19 0.26 0.24 0.26 0.36 0.46 0.53 0.64 0.78 0.85 0.93 1.09 1.11 1.14 1.23 1.34 1.32 1.26 1.15 1.05 0.97 0.88 0.87 0.86 0.83 0.82 0.84 0.86 0.88 0.86 0.82 0.77 0.73 0.65 0.58 0.56
0.35 0.37 0.36 0.27 0.22 0.32 0.27 0.16 0.09 0.08 0.11 0.11 0.13 0.15 0.21 0.24 0.26 0.32 0.42 0.55 0.65 0.75 0.84 0.89 1.07 1.11 1.19 1.26 1.27 1.25 1.15 1.09 1.04 0.96 0.90 0.85 0.88 0.90 0.87 0.85 0.85 0.85 0.84 0.77 0.72 0.71 0.72 0.69 0.66
0.45 0.46 0.37 0.27 0.24 0.34 0.31 0.18 0.09 0.07 0.08 0.08 0.10 0.13 0.17 0.22 0.28 0.34 0.39 0.49 0.57 0.62 0.70 0.77 0.97 1.14 1.20 1.21 1.15 1.13 1.12 1.06 1.05 0.98 0.96 0.94 0.90 0.93 0.92 0.86 0.87 0.87 0.83 0.77 0.70 0.68 0.69 0.69 0.70
0.50 0.42 0.35 0.33 0.33 0.37 0.38 0.28 0.12 0.07 0.07 0.10 0.13 0.15 0.17 0.18 0.24 0.29 0.31 0.42 0.51 0.57 0.60 0.69 0.88 1.06 1.20 1.26 1.31 1.30 1.32 1.31 1.24 1.13 1.02 0.96 0.95 0.94 0.96 0.91 0.86 0.88 0.89 0.83 0.73 0.67 0.66 0.66 0.61
0.54 0.30 0.29 0.36 0.55 0.59 0.47 0.47 0.18 0.10 0.10 0.11 0.13 0.13 0.14 0.16 0.22 0.27 0.29 0.36 0.45 0.52 0.57 0.68 0.87 1.03 1.12 1.19 1.27 1.30 1.28 1.28 1.22 1.11 1.02 0.94 0.92 0.93 0.91 0.93 0.91 0.87 0.86 0.82 0.77 0.69 0.65 0.67 0.67
0.48 0.30 0.33 0.45 0.63 0.71 0.50 0.51 0.23 0.12 0.13 0.13 0.14 0.13 0.13 0.14 0.17 0.22 0.27 0.34 0.45 0.55 0.58 0.67 0.83 0.99 1.12 1.18 1.18 1.22 1.21 1.17 1.20 1.24 1.17 1.07 1.00 0.96 0.93 0.90 0.93 0.91 0.85 0.80 0.79 0.79 0.75 0.73 0.71
0.52 0.57 0.64 0.72 1.07 1.25 0.47 0.40 0.25 0.16 0.17 0.16 0.15 0.14 0.14 0.16 0.17 0.21 0.28 0.32 0.44 0.62 0.65 0.69 0.78 0.92 1.11 1.23 1.21 1.16 1.16 1.17 1.18 1.21 1.22 1.19 1.11 1.02 0.93 0.89 0.87 0.87 0.84 0.77 0.74 0.77 0.80 0.80 0.75
0.90 1.31 1.97 2.09 2.04 1.13 0.24 0.26 0.26 0.14 0.13 0.14 0.14 0.14 0.13 0.17 0.21 0.22 0.26 0.33 0.39 0.54 0.63 0.70 0.78 0.81 0.96 1.16 1.23 1.16 1.16 1.11 1.06 1.09 1.12 1.12 1.12 1.09 0.99 0.90 0.85 0.82 0.81 0.80 0.77 0.78 0.78 0.79 0.83
1.03 1.26 1.58 1.45 0.98 0.41 0.17 0.20 0.19 0.10 0.08 0.10 0.12 0.12 0.12 0.14 0.19 0.23 0.23 0.29 0.38 0.46 0.56 0.67 0.78 0.83 0.89 1.00 1.14 1.18 1.21 1.15 1.03 0.99 1.02 1.04 1.02 1.01 1.01 0.99 0.91 0.81 0.76 0.79 0.83 0.82 0.79 0.79 0.83
0.84 0.98 0.84 0.98 0.66 0.42 0.30 0.19 0.15 0.08 0.06 0.06 0.08 0.11 0.14 0.16 0.20 0.24 0.24 0.27 0.32 0.39 0.47 0.60 0.73 0.87 0.90 0.91 1.03 1.13 1.16 1.14 1.05 0.97 0.95 0.99 1.00 1.02 1.07 1.06 1.04 0.96 0.88 0.82 0.83 0.84 0.83 0.86 0.84
0.65 0.76 0.99 1.40 1.15 0.61 0.31 0.19 0.20 0.13 0.09 0.07 0.06 0.07 0.10 0.15 0.19 0.23 0.26 0.26 0.27 0.33 0.41 0.51 0.61 0.81 0.98 0.93 0.95 1.08 1.12 1.13 1.10 1.03 0.97 0.92 0.90 0.96 1.08 1.14 1.09 1.09 1.05 0.98 0.91 0.86 0.84 0.89 0.90
0.68 0.91 1.16 1.27 1.04 0.72 0.42 0.29 0.24 0.15 0.10 0.10 0.08 0.07 0.09 0.12 0.15 0.20 0.27 0.30 0.29 0.31 0.38 0.49 0.55 0.67 0.92 1.00 0.95 0.99 1.07 1.10 1.12 1.10 1.02 0.95 0.90 0.90 0.98 1.09 1.13 1.14 1.15 1.11 1.07 1.00 0.96 0.94 0.94
0.59 0.74 0.90 1.18 0.96 0.59 0.47 0.31 0.19 0.13 0.11 0.10 0.10 0.08 0.08 0.11 0.15 0.20 0.29 0.34 0.35 0.35 0.37 0.46 0.48 0.55 0.72 0.93 1.00 0.97 0.99 1.09 1.10 1.02 0.99 1.01 0.98 0.95 0.96 1.06 1.19 1.20 1.18 1.15 1.13 1.10 1.12 1.16 1.10